| Date & Time | Wind Spd (mph) | Wind Dir (°) | Wind Gust (mph) | Wind Spd Sonic (mph) | Wind Dir Sonic (°) | Wind Gust Sonic (mph) |
|---|---|---|---|---|---|---|
| 9/5/26 - 0630 | 30.9 | SE | 125 | 38.1 | 32.9 | SW | 214 | 36.9 |
| 9/5/26 - 0625 | 30.1 | SE | 130 | 37.1 | 32.4 | SW | 214 | 35.3 |
| 9/5/26 - 0620 | 30.0 | SE | 131 | 37.0 | 32.6 | SSW | 213 | 35.1 |
| 9/5/26 - 0615 | 30.4 | SE | 129 | 38.2 | 32.5 | SW | 214 | 36.0 |
| 9/5/26 - 0610 | 29.8 | ESE | 110 | 36.4 | 32.6 | SSW | 213 | 35.8 |
| 9/5/26 - 0605 | 30.6 | SE | 134 | 39.7 | 32.5 | SSW | 213 | 35.8 |
| Max | 30.9 | - | 39.7 | 32.9 | - | 36.9 |
| Avg | 30.3 | - | 37.8 | 32.6 | - | 35.8 |
| Min | 29.8 | - | 36.4 | 32.4 | - | 35.1 |
| Wind Spd | 30.3 mph 11.3 |
|---|---|
| Wind Spd Sonic | 32.6 mph 9.2 |
| Wind Dir | SE | 129 ° |
| Wind Dir Sonic | SW | 214 ° |
| Wind Gust | 38.1 mph 14.3 |
| Wind Gust Sonic | 36.9 mph 13.0 |
| Temp | 30.2 °F 0.7 |
| WindChill | 14.4 °F 1.2 |
| RH | 87 % 13 |
| Dew Pt | 26.7 °F 4.2 |
| Wet Bulb | 28.9 °F 1.9 |
| Daily Max Wind | 42.2 mph 13.9 |
| Time of Max Wind | 0105 |
| Max Wind Dir | N | 1 ° |
| Daily Max Gust Sonic | 41.2 mph 13.4 |
| Time Wind Max Sonic | 0101 |
| Dir Max Gust Sonic | SW | 217 Degrees |
| Daily Max Temp | 33.8 °F 1.7 |
| Daily Min Temp | 30.0 °F 0.8 |
| Yest MaxT | 40.8 °F |
| Yest MinT | 30.8 °F |
| Yest MaxGst | 56.1 mph |
| Date & Time | Temp (°F) | WindChill (°F) | RH (%) | Dew Pt (°F) | Wet Bulb (°F) | Wind Spd (mph) | Wind Spd Sonic (mph) | Wind Dir (°) | Wind Dir Sonic (°) | Wind Gust (mph) | Wind Gust Sonic (mph) | Daily Min Temp (°F) | Daily Max Temp (°F) | Daily Max Wind (mph) | Daily Max Gust Sonic (mph) |
|---|---|---|---|---|---|---|---|---|---|---|---|---|---|---|---|
| 9/5/26 - 0630 | 30.2 | 14.4 | 87 | 26.7 | 28.9 | 30.3 | 32.6 | SE | 129 | SW | 214 | 38.1 | 36.9 | 30.0 | 33.8 | 42.2 | 41.2 |
| 9/5/26 - 0615 | 30.4 | 14.4 | 86 | 26.7 | 29.0 | 30.2 | 32.5 | ESE | 123 | SSW | 213 | 39.7 | 36.0 | 30.0 | 33.8 | 42.2 | 41.2 |
| 9/5/26 - 0600 | 30.4 | 14.6 | 88 | 27.2 | 29.1 | 30.5 | 32.6 | ESE | 123 | SSW | 213 | 37.3 | 35.8 | 30.0 | 33.8 | 42.2 | 41.2 |
| 9/5/26 - 0545 | 30.4 | 14.4 | 89 | 27.5 | 29.3 | 30.9 | 33.4 | SE | 125 | SSW | 213 | 39.1 | 37.4 | 30.0 | 33.8 | 42.2 | 41.2 |
| 9/5/26 - 0530 | 30.5 | 14.5 | 91 | 28.2 | 29.6 | 31.9 | 34.5 | ESE | 123 | SSW | 213 | 40.0 | 38.0 | 30.0 | 33.8 | 42.2 | 41.2 |
| 9/5/26 - 0515 | 30.2 | 14.2 | 98 | 29.8 | 29.9 | 31.5 | 34.0 | ESE | 118 | SSW | 213 | 38.1 | 37.1 | 30.0 | 33.8 | 42.2 | 41.2 |
| 9/5/26 - 0500 | 30.1 | 14.0 | 100 | 30.1 | 30.0 | 32.2 | 34.2 | ESE | 110 | SSW | 213 | 38.9 | 37.8 | 30.0 | 33.8 | 42.2 | 41.2 |
| 9/5/26 - 0445 | 30.1 | 14.4 | 100 | 30.1 | 30.0 | 30.4 | 32.5 | ESE | 117 | SSW | 213 | 36.4 | 35.3 | 30.0 | 33.8 | 42.2 | 41.2 |
| 9/5/26 - 0430 | 30.2 | 14.2 | 100 | 30.2 | 30.0 | 30.9 | 33.3 | ESE | 109 | SSW | 213 | 38.5 | 37.1 | 30.1 | 33.8 | 42.2 | 41.2 |
| 9/5/26 - 0415 | 30.2 | 14.2 | 100 | 30.2 | 30.1 | 31.2 | 33.3 | ESE | 109 | SSW | 213 | 38.7 | 36.7 | 30.2 | 33.8 | 42.2 | 41.2 |
| 9/5/26 - 0400 | 30.4 | 14.6 | 100 | 30.4 | 30.3 | 30.4 | 32.0 | E | 97 | SSW | 213 | 37.4 | 34.9 | 30.3 | 33.8 | 42.2 | 41.2 |
| 9/5/26 - 0345 | 30.4 | 14.9 | 100 | 30.4 | 30.3 | 29.1 | 31.0 | NE | 41 | SW | 215 | 36.0 | 34.7 | 30.3 | 33.8 | 42.2 | 41.2 |
| 9/5/26 - 0330 | 30.8 | 15.2 | 100 | 30.8 | 30.7 | 29.8 | 32.0 | NE | 52 | SW | 215 | 37.4 | 36.5 | 30.5 | 33.8 | 42.2 | 41.2 |
| 9/5/26 - 0315 | 31.4 | 15.8 | 100 | 31.4 | 31.3 | 31.8 | 34.4 | NE | 53 | SSW | 213 | 38.7 | 37.6 | 31.1 | 33.8 | 42.2 | 41.2 |
| 9/5/26 - 0300 | 31.8 | 16.3 | 100 | 31.8 | 31.7 | 31.7 | 34.3 | NNE | 24 | SSW | 211 | 38.8 | 38.0 | 31.4 | 33.8 | 42.2 | 41.2 |
| 9/5/26 - 0245 | 32.3 | 17.1 | 100 | 32.3 | 32.2 | 31.0 | 33.7 | NNE | 28 | SSW | 210 | 38.4 | 36.2 | 32.0 | 33.8 | 42.2 | 41.2 |
| 9/5/26 - 0230 | 32.4 | 17.5 | 100 | 32.4 | 32.4 | 30.0 | 32.5 | N | 11 | SSW | 210 | 36.9 | 36.5 | 32.3 | 33.8 | 42.2 | 41.2 |
| 9/5/26 - 0215 | 32.6 | 17.3 | 100 | 32.6 | 32.5 | 31.0 | 33.6 | N | 3 | SSW | 211 | 40.2 | 39.2 | 32.4 | 33.8 | 42.2 | 41.2 |
| 9/5/26 - 0200 | 33.1 | 18.2 | 100 | 33.1 | 33.0 | 30.0 | 32.7 | N | 1 | SSW | 210 | 38.9 | 40.3 | 32.8 | 33.8 | 42.2 | 41.2 |
| 9/5/26 - 0145 | 33.5 | 18.9 | 100 | 33.5 | 33.5 | 30.0 | 32.0 | N | 3 | SSW | 210 | 38.0 | 39.4 | 33.1 | 33.8 | 42.2 | 41.2 |
| 9/5/26 - 0130 | 33.5 | 18.6 | 100 | 33.5 | 33.4 | 30.8 | 32.0 | N | 1 | SSW | 208 | 40.1 | 38.5 | 33.1 | 33.8 | 42.2 | 41.2 |
| 9/5/26 - 0115 | 33.3 | 18.1 | 100 | 33.3 | 33.3 | 32.1 | 34.8 | N | 1 | SSW | 213 | 42.2 | 41.2 | 33.1 | 33.5 | 42.2 | 41.2 |
| 9/5/26 - 0100 | 33.6 | 18.4 | 100 | 33.6 | 33.5 | 32.1 | 34.8 | N | 1 | SSW | 212 | 42.9 | 42.3 | 30.8 | 40.8 | 56.1 | 54.6 |
| 9/5/26 - 0045 | 33.5 | 18.2 | 100 | 33.5 | 33.5 | 32.8 | 35.1 | N | 2 | SW | 214 | 42.5 | 41.6 | 30.8 | 40.8 | 56.1 | 54.6 |
| 9/5/26 - 0030 | 33.5 | 18.1 | 100 | 33.5 | 33.5 | 34.2 | 35.7 | N | 0 | SSW | 211 | 43.5 | 41.6 | 30.8 | 40.8 | 56.1 | 54.6 |
| 9/5/26 - 0015 | 33.5 | 18.0 | 100 | 33.5 | 33.5 | 34.0 | 36.1 | N | 4 | SSW | 213 | 44.8 | 42.5 | 30.8 | 40.8 | 56.1 | 54.6 |
| 9/5/26 - 0000 | 33.6 | 18.1 | 100 | 33.6 | 33.6 | 34.3 | 35.9 | N | 0 | SSW | 213 | 44.3 | 45.0 | 30.8 | 40.8 | 56.1 | 54.6 |
| 9/4/26 - 2345 | 33.7 | 18.2 | 100 | 33.7 | 33.6 | 33.7 | 35.5 | N | 0 | SW | 215 | 45.0 | 43.4 | 30.8 | 40.8 | 56.1 | 54.6 |
| 9/4/26 - 2330 | 33.7 | 18.5 | 100 | 33.7 | 33.7 | 33.2 | 35.4 | N | 4 | SW | 214 | 43.1 | 43.4 | 30.8 | 40.8 | 56.1 | 54.6 |
| 9/4/26 - 2315 | 33.7 | 18.4 | 100 | 33.7 | 33.7 | 33.7 | 35.7 | N | 7 | SW | 215 | 43.7 | 42.7 | 30.8 | 40.8 | 56.1 | 54.6 |
| 9/4/26 - 2300 | 33.8 | 18.4 | 100 | 33.8 | 33.8 | 34.6 | 35.9 | NNE | 21 | SSW | 213 | 44.6 | 40.9 | 30.8 | 40.8 | 56.1 | 54.6 |
| 9/4/26 - 2245 | 33.9 | 18.7 | 100 | 33.9 | 33.9 | 34.1 | 35.8 | N | 7 | SW | 216 | 42.7 | 40.9 | 30.8 | 40.8 | 56.1 | 54.6 |
| 9/4/26 - 2230 | 34.1 | 18.7 | 100 | 34.1 | 34.0 | 34.8 | 37.2 | N | 10 | SW | 216 | 44.4 | 43.0 | 30.8 | 40.8 | 56.1 | 54.6 |
| 9/4/26 - 2215 | 34.3 | 19.0 | 100 | 34.3 | 34.3 | 35.6 | 38.0 | NNE | 17 | SW | 217 | 44.4 | 43.2 | 30.8 | 40.8 | 56.1 | 54.6 |
| 9/4/26 - 2200 | 34.4 | 18.8 | 100 | 34.4 | 34.4 | 37.0 | 38.7 | N | 10 | SSW | 212 | 47.0 | 44.1 | 30.8 | 40.8 | 56.1 | 54.6 |
| 9/4/26 - 2145 | 34.6 | 19.1 | 100 | 34.6 | 34.6 | 36.7 | 38.9 | N | 4 | SW | 214 | 48.1 | 45.4 | 30.8 | 40.8 | 56.1 | 54.6 |
| 9/4/26 - 2130 | 35.0 | 19.9 | 100 | 35.0 | 35.0 | 35.9 | 37.2 | N | 0 | SW | 214 | 45.6 | 43.2 | 30.8 | 40.8 | 56.1 | 54.6 |
| 9/4/26 - 2115 | 35.3 | 20.4 | 100 | 35.3 | 35.3 | 34.0 | 35.5 | N | 6 | SW | 215 | 45.6 | 44.7 | 30.8 | 40.8 | 56.1 | 54.6 |
| 9/4/26 - 2100 | 35.4 | 20.4 | 100 | 35.4 | 35.5 | 34.8 | 36.3 | N | 2 | SW | 215 | 47.5 | 43.8 | 30.8 | 40.8 | 56.1 | 54.6 |
| 9/4/26 - 2045 | 35.4 | 20.5 | 100 | 35.4 | 35.4 | 34.0 | 35.6 | N | 9 | SW | 214 | 46.5 | 48.1 | 30.8 | 40.8 | 56.1 | 54.6 |
| 9/4/26 - 2030 | 35.6 | 20.9 | 100 | 35.6 | 35.6 | 33.6 | 34.8 | N | 1 | SW | 214 | 44.6 | 43.0 | 30.8 | 40.8 | 56.1 | 54.6 |
| 9/4/26 - 2015 | 35.8 | 21.4 | 100 | 35.8 | 35.9 | 32.2 | 33.4 | N | 2 | SW | 214 | 45.1 | 43.2 | 30.8 | 40.8 | 56.1 | 54.6 |
| 9/4/26 - 2000 | 36.1 | 22.0 | 100 | 36.1 | 36.2 | 30.9 | 31.6 | N | 0 | SW | 218 | 43.0 | 41.6 | 30.8 | 40.8 | 56.1 | 54.6 |
| 9/4/26 - 1945 | 36.5 | 22.5 | 100 | 36.5 | 36.6 | 31.0 | 31.8 | N | 5 | SW | 218 | 43.7 | 42.3 | 30.8 | 40.8 | 56.1 | 54.6 |
| 9/4/26 - 1930 | 36.5 | 22.3 | 100 | 36.5 | 36.6 | 32.7 | 33.5 | N | 4 | SW | 218 | 44.0 | 42.0 | 30.8 | 40.8 | 56.1 | 54.6 |
| 9/4/26 - 1915 | 36.7 | 22.8 | 100 | 36.7 | 36.8 | 32.2 | 33.2 | N | 4 | SW | 216 | 42.6 | 39.8 | 30.8 | 40.8 | 56.1 | 54.6 |
| 9/4/26 - 1900 | 37.0 | 23.3 | 100 | 37.0 | 37.1 | 30.9 | 31.2 | N | 0 | SW | 219 | 42.3 | 42.3 | 30.8 | 40.8 | 56.1 | 54.6 |
| 9/4/26 - 1845 | 37.1 | 23.2 | 100 | 37.1 | 37.2 | 31.3 | 31.5 | N | 2 | SW | 220 | 44.6 | 41.6 | 30.8 | 40.8 | 56.1 | 54.6 |
| 9/4/26 - 1830 | 37.2 | 23.4 | 100 | 37.2 | 37.3 | 32.4 | 32.8 | N | 3 | SW | 223 | 43.2 | 43.2 | 30.8 | 40.8 | 56.1 | 54.6 |
| 9/4/26 - 1815 | 37.3 | 23.4 | 100 | 37.3 | 37.4 | 33.1 | 33.8 | N | 4 | SW | 221 | 45.3 | 43.4 | 30.8 | 40.8 | 56.1 | 54.6 |
| 9/4/26 - 1800 | 37.3 | 23.4 | 100 | 37.3 | 37.4 | 32.4 | 32.3 | W | 261 | SW | 219 | 44.7 | 42.3 | 30.8 | 40.8 | 56.1 | 54.6 |
| 9/4/26 - 1745 | 37.5 | 23.5 | 100 | 37.4 | 37.6 | 33.2 | 33.4 | SW | 224 | SW | 221 | 46.5 | 43.8 | 30.8 | 40.8 | 56.1 | 54.6 |
| 9/4/26 - 1730 | 37.7 | 23.4 | 99 | 37.4 | 37.7 | 35.7 | 36.4 | NNE | 23 | SW | 219 | 48.7 | 47.4 | 30.8 | 40.8 | 56.1 | 54.6 |
| 9/4/26 - 1715 | 37.9 | 24.2 | 98 | 37.4 | 37.8 | 32.6 | 32.4 | SW | 218 | SW | 224 | 46.4 | 46.5 | 30.8 | 40.8 | 56.1 | 54.6 |
| 9/4/26 - 1700 | 38.4 | 24.8 | 97 | 37.5 | 38.1 | 33.4 | 33.8 | SSW | 194 | SW | 221 | 44.9 | 44.3 | 30.8 | 40.8 | 56.1 | 54.6 |
| 9/4/26 - 1645 | 38.5 | 25.3 | 94 | 37.1 | 38.0 | 31.2 | 30.8 | SW | 220 | SW | 228 | 43.7 | 45.2 | 30.8 | 40.8 | 56.1 | 54.6 |
| 9/4/26 - 1630 | 39.0 | 26.2 | 93 | 37.1 | 38.3 | 29.0 | 28.2 | SW | 222 | SW | 229 | 42.4 | 42.5 | 30.8 | 40.8 | 56.1 | 54.6 |
| 9/4/26 - 1615 | 39.4 | 26.1 | 92 | 37.2 | 38.6 | 33.7 | 33.3 | SW | 220 | SW | 219 | 46.8 | 45.4 | 30.8 | 40.8 | 56.1 | 54.6 |
| 9/4/26 - 1600 | 39.2 | 26.0 | 92 | 37.0 | 38.4 | 33.8 | 33.7 | SW | 228 | SW | 223 | 44.8 | 45.9 | 30.8 | 40.8 | 56.1 | 54.6 |
| 9/4/26 - 1545 | 39.5 | 26.6 | 88 | 36.3 | 38.2 | 30.4 | 29.4 | SSW | 200 | SW | 227 | 44.6 | 44.1 | 30.8 | 40.8 | 56.1 | 54.6 |
| 9/4/26 - 1530 | 39.8 | 26.5 | 86 | 36.0 | 38.3 | 34.4 | 34.4 | WSW | 252 | SW | 221 | 48.0 | 48.1 | 30.8 | 40.8 | 56.1 | 54.6 |
| 9/4/26 - 1515 | 40.1 | 27.4 | 84 | 35.7 | 38.3 | 29.6 | 28.7 | SW | 228 | SW | 232 | 45.8 | 48.8 | 30.8 | 40.8 | 56.1 | 54.6 |
| 9/4/26 - 1500 | 40.6 | 27.7 | 82 | 35.6 | 38.5 | 34.9 | 34.3 | WSW | 247 | SW | 220 | 45.9 | 45.9 | 30.8 | 40.8 | 56.1 | 54.6 |
| 9/4/26 - 1445 | 40.3 | 27.0 | 83 | 35.5 | 38.4 | 36.4 | 36.3 | WSW | 245 | SW | 221 | 50.6 | 47.4 | 30.8 | 40.8 | 56.1 | 54.6 |
| 9/4/26 - 1430 | 40.2 | 26.5 | 84 | 35.6 | 38.3 | 38.0 | 37.5 | SW | 218 | SW | 217 | 52.8 | 48.5 | 30.8 | 40.8 | 56.1 | 54.6 |
| 9/4/26 - 1415 | 40.2 | 27.5 | 81 | 35.0 | 38.1 | 28.2 | 26.7 | WSW | 242 | WSW | 241 | 48.3 | 51.7 | 30.8 | 40.8 | 56.1 | 54.6 |
| 9/4/26 - 1400 | 40.2 | 26.8 | 80 | 34.5 | 37.8 | 35.9 | 34.8 | NNW | 345 | SW | 226 | 50.4 | 50.8 | 30.8 | 40.8 | 56.1 | 54.6 |
| 9/4/26 - 1345 | 40.4 | 26.5 | 81 | 35.0 | 38.2 | 39.5 | 39.6 | N | 11 | SW | 222 | 55.9 | 52.6 | 30.8 | 40.8 | 56.1 | 54.6 |
| 9/4/26 - 1330 | 40.0 | 26.4 | 82 | 35.1 | 38.0 | 37.4 | 37.4 | SW | 235 | SW | 222 | 51.8 | 50.8 | 30.8 | 40.5 | 56.1 | 54.6 |
| 9/4/26 - 1315 | 39.7 | 26.4 | 83 | 35.0 | 37.8 | 34.7 | 33.6 | NW | 317 | SW | 226 | 48.0 | 51.9 | 30.8 | 40.1 | 56.1 | 54.6 |
| 9/4/26 - 1300 | 39.7 | 25.9 | 85 | 35.6 | 38.0 | 37.7 | 37.3 | N | 4 | SW | 221 | 51.3 | 51.4 | 30.8 | 40.0 | 56.1 | 54.6 |
| 9/4/26 - 1245 | 39.4 | 25.4 | 86 | 35.6 | 37.9 | 38.8 | 38.7 | NNW | 332 | SW | 217 | 52.5 | 48.8 | 30.8 | 39.6 | 56.1 | 54.6 |
| 9/4/26 - 1230 | 39.1 | 25.2 | 86 | 35.4 | 37.6 | 37.6 | 36.9 | SW | 217 | SW | 218 | 50.4 | 52.3 | 30.8 | 39.5 | 56.1 | 54.6 |
| 9/4/26 - 1215 | 38.8 | 24.8 | 86 | 35.0 | 37.2 | 36.9 | 36.6 | SSW | 206 | SW | 222 | 50.4 | 47.9 | 30.8 | 39.3 | 56.1 | 54.6 |
| 9/4/26 - 1200 | 38.6 | 24.5 | 86 | 34.9 | 37.1 | 36.9 | 37.2 | SW | 222 | SW | 221 | 49.1 | 49.9 | 30.8 | 39.2 | 56.1 | 54.6 |
| 9/4/26 - 1145 | 38.3 | 24.3 | 87 | 34.8 | 36.9 | 35.7 | 35.5 | NNW | 335 | SW | 219 | 48.6 | 47.4 | 30.8 | 38.7 | 56.1 | 54.6 |
| 9/4/26 - 1130 | 37.6 | 23.1 | 91 | 35.2 | 36.6 | 35.4 | 36.1 | SW | 227 | SW | 221 | 50.9 | 48.8 | 30.8 | 38.4 | 56.1 | 54.6 |
| 9/4/26 - 1115 | 36.3 | 21.5 | 100 | 36.3 | 36.4 | 35.5 | 35.8 | SW | 227 | SW | 220 | 48.2 | 46.1 | 30.8 | 37.0 | 56.1 | 54.6 |
| 9/4/26 - 1100 | 36.1 | 21.4 | 100 | 36.1 | 36.2 | 35.4 | 35.6 | SW | 224 | SW | 219 | 46.6 | 45.9 | 30.8 | 36.5 | 56.1 | 54.6 |
| 9/4/26 - 1045 | 35.7 | 21.0 | 100 | 35.7 | 35.7 | 35.0 | 35.2 | SW | 224 | SW | 219 | 44.8 | 43.8 | 30.8 | 36.2 | 56.1 | 54.6 |
| 9/4/26 - 1030 | 34.9 | 19.7 | 100 | 34.9 | 34.9 | 36.2 | 38.0 | SW | 223 | SW | 216 | 45.5 | 44.5 | 30.8 | 35.2 | 56.1 | 54.6 |
| 9/4/26 - 1015 | 34.3 | 18.7 | 100 | 34.3 | 34.3 | 37.6 | 39.2 | SW | 220 | SW | 214 | 46.2 | 46.1 | 30.8 | 34.7 | 56.1 | 54.6 |
| 9/4/26 - 1000 | 33.8 | 17.6 | 100 | 33.8 | 33.8 | 39.0 | 39.8 | SSW | 194 | SSW | 212 | 50.4 | 46.3 | 30.8 | 34.0 | 56.1 | 54.6 |
| 9/4/26 - 0945 | 33.2 | 17.0 | 100 | 33.2 | 33.2 | 38.2 | 40.3 | NNW | 340 | SSW | 212 | 48.1 | 47.0 | 30.8 | 33.6 | 56.1 | 54.6 |
| 9/4/26 - 0930 | 32.5 | 15.9 | 100 | 32.5 | 32.4 | 39.2 | 40.1 | ENE | 78 | SSW | 213 | 48.4 | 45.6 | 30.8 | 32.9 | 56.1 | 54.6 |
| 9/4/26 - 0915 | 32.1 | 15.2 | 100 | 32.1 | 32.0 | 39.3 | 41.3 | SE | 143 | SW | 214 | 51.0 | 48.1 | 30.8 | 32.3 | 56.1 | 54.6 |
| 9/4/26 - 0900 | 31.9 | 14.9 | 100 | 31.9 | 31.9 | 40.6 | 42.8 | SW | 224 | SSW | 213 | 49.8 | 47.9 | 30.8 | 32.1 | 56.1 | 54.6 |
| 9/4/26 - 0845 | 31.7 | 14.6 | 100 | 31.7 | 31.6 | 40.6 | 42.8 | SW | 224 | SW | 215 | 49.7 | 48.5 | 30.8 | 32.1 | 56.1 | 54.6 |
| 9/4/26 - 0830 | 31.5 | 14.4 | 100 | 31.5 | 31.5 | 40.2 | 42.0 | SW | 224 | SW | 215 | 49.3 | 47.4 | 30.8 | 32.1 | 56.1 | 54.6 |
| 9/4/26 - 0815 | 31.4 | 13.9 | 100 | 31.4 | 31.3 | 42.0 | 43.1 | SW | 222 | SW | 216 | 52.6 | 49.0 | 30.8 | 32.1 | 56.1 | 54.6 |
| 9/4/26 - 0800 | 31.4 | 14.0 | 100 | 31.4 | 31.3 | 41.6 | 42.3 | SW | 222 | SW | 216 | 51.1 | 49.2 | 30.8 | 32.1 | 56.1 | 54.6 |
| 9/4/26 - 0745 | 31.1 | 13.4 | 100 | 31.1 | 31.0 | 41.9 | 42.7 | SW | 224 | SW | 217 | 53.1 | 53.2 | 30.8 | 32.1 | 56.1 | 54.6 |
| 9/4/26 - 0730 | 31.1 | 13.6 | 100 | 31.1 | 31.0 | 40.2 | 41.3 | SW | 220 | SW | 219 | 51.9 | 47.9 | 30.8 | 32.1 | 56.1 | 54.6 |
| 9/4/26 - 0715 | 31.0 | 13.9 | 100 | 31.0 | 30.9 | 38.6 | 38.7 | SW | 219 | SW | 220 | 47.8 | 46.8 | 30.8 | 32.1 | 56.1 | 54.6 |
| 9/4/26 - 0700 | 31.0 | 13.7 | 100 | 31.0 | 31.0 | 39.8 | 40.1 | SW | 220 | SW | 219 | 49.8 | 49.2 | 30.8 | 32.1 | 56.1 | 54.6 |
| 9/4/26 - 0645 | 30.9 | 13.1 | 100 | 30.9 | 30.8 | 41.5 | 42.0 | SW | 220 | SW | 218 | 54.0 | 49.4 | 30.8 | 32.1 | 56.1 | 54.6 |
| 9/4/26 - 0630 | 30.9 | 13.2 | 100 | 30.9 | 30.8 | 41.6 | 41.8 | SW | 222 | SW | 219 | 52.4 | 49.9 | 30.8 | 32.1 | 56.1 | 54.6 |
| Max | 40.6 | 27.7 | 100 | 37.5 | 38.6 | 42.0 | 43.1 | - | - | 55.9 | 53.2 | 33.1 | 40.8 | 56.1 | 54.6 |
| Avg | 34.8 | 19.8 | 96 | 33.8 | 34.4 | 34.4 | 35.5 | - | - | 45.2 | 44.0 | - | - | - | - |
| Min | 30.1 | 13.1 | 80 | 26.7 | 28.9 | 28.2 | 26.7 | - | - | 36.0 | 34.7 | 30.0 | 32.1 | 42.2 | 41.2 |